Probability
0 0 0 0 0 0 0 0 0 0 0 0 0 0 0 0 0 0 0 0 0 0 0 0 0 0 0 0 0 0 0 3 6 10 16 26 32 42
0 0 0 0 0 0 0 0 0 0 0 0 0 0 0 0 0 0 0 0 0 0 0 0 0 0 0 0 0 0 0 0 0 0 3 3 3 13
0 0 0 0 0 0 0 0 0 0 0 0 0 0 0 0 0 0 0 0 0 0 0 0 0 0 0 0 0 0 0 0 0 0 0 0 0 0
0 0 0 0 0 0 0 0 0 0 0 0 0 0 0 0 0 0 0 0 0 0 0 0 0 0 0 0 0 0 0 0 0 0 0 0 0 0
0 0 0 0 0 0 0 0 0 0 0 0 0 0 0 0 0 0 0 0 0 0 0 0 0 0 0 0 0 0 0 0 0 0 0 0 0 0
0 0 0 0 0 0 0 0 0 0 0 0 0 0 0 0 0 0 0 0 0 0 0 0 0 0 0 0 0 0 0 0 0 0 0 0 0 0
0 0 0 0 0 0 0 0 0 0 0 0 0 0 0 0 0 0 0 0 0 0 0 0 0 0 0 0 0 0 0 0 0 0 0 0 0 0
0 0 0 0 0 0 0 0 0 0 0 0 0 0 0 0 0 0 0 0 0 0 0 0 0 0 0 0 0 0 0 0 0 0 0 0 0 0
0 0 0 0 0 0 0 0 0 0 0 0 0 0 0 0 0 0 0 0 0 0 0 0 0 0 0 0 0 0 0 0 0 0 0 0 0 0
0 0 0 0 0 0 0 0 0 0 0 0 0 0 0 0 0 0 0 0 0 0 0 0 0 0 0 0 0 0 0 0 0 0 0 0 0 0
0 0 0 0 0 0 0 0 0 0 0 0 0 0 0 0 0 0 0 0 0 0 0 0 0 0 0 0 0 0 0 0 0 0 0 0 0 0
0 0 0 0 0 0 0 0 0 0 0 0 0 0 0 0 0 0 0 0 0 0 0 0 0 0 0 0 0 0 0 0 0 0 0 0 0 0
0 0 0 0 0 0 0 0 0 0 0 0 0 0 0 0 0 0 0 0 0 0 0 0 0 0 0 0 0 0 0 0 0 0 0 0 0 0
0 0 0 0 0 0 0 0 0 0 0 0 0 0 0 0 0 0 0 0 0 0 0 0 0 0 0 0 0 0 0 0 0 0 0 0 0 0
0 0 0 0 0 0 0 0 0 0 0 0 0 0 0 0 0 0 0 0 0 0 0 0 0 0 0 0 0 0 0 0 0 0 0 0 0 0
0 0 0 0 0 0 0 0 0 0 0 0 0 0 0 0 0 0 0 0 0 0 0 0 0 0 0 0 0 0 0 0 0 0 0 0 0 0
0 0 0 0 0 0 0 0 0 0 0 0 0 0 0 0 0 0 0 0 0 0 0 0 0 0 0 0 0 0 0 0 0 0 0 0 0 0
0 0 0 0 0 0 0 0 0 0 0 0 0 0 0 0 0 0 0 0 0 0 0 0 0 0 0 0 0 0 0 0 0 0 0 0 0 0
0 0 0 0 0 0 0 0 0 0 0 0 0 0 0 0 0 0 0 0 0 0 0 0 0 0 0 0 0 0 0 0 0 0 0 0 0 0
0 0 0 0 0 0 0 0 0 0 0 0 0 0 0 0 0 0 0 0 0 0 0 0 0 0 0 0 0 0 0 0 0 0 0 0 0 0
0 0 0 0 0 0 0 0 0 0 0 0 0 0 0 0 0 0 0 0 0 0 0 0 0 0 0 0 0 0 0 0 0 0 0 0 0 0
0 0 0 0 0 0 0 0 0 0 0 0 0 0 0 0 0 0 0 0 0 0 0 0 0 0 0 0 0 0 0 0 0 0 0 0 0 0
0 0 0 0 0 0 0 0 0 0 0 0 0 0 0 0 0 0 0 0 0 0 0 0 0 0 0 0 0 0 0 0 0 0 0 0 0 0
Height
5722 5724 5728 5731 5735 5740 5744 5749 5753 5758 5763 5767 5773 5778 5782 5788 5793 5799 5805 5810 5816 5821 5826 5830 5835 5838 5842 5844 5847 5849 5851 5853 5854 5856 5857 5858 5859 5860
5708 5711 5714 5718 5722 5727 5732 5737 5742 5748 5753 5758 5764 5769 5775 5780 5785 5791 5797 5803 5809 5814 5820 5825 5829 5833 5837 5840 5843 5845 5847 5849 5850 5852 5853 5853 5854 5855
5693 5696 5700 5704 5708 5714 5720 5726 5731 5737 5743 5749 5754 5760 5765 5771 5777 5783 5789 5796 5801 5807 5813 5818 5823 5828 5832 5835 5838 5840 5843 5844 5846 5847 5848 5849 5850 5850
5677 5681 5685 5689 5694 5700 5706 5712 5719 5725 5732 5738 5744 5750 5756 5762 5768 5774 5781 5787 5794 5800 5806 5811 5817 5821 5826 5830 5833 5836 5838 5840 5841 5843 5844 5845 5845 5846
5659 5663 5668 5673 5679 5685 5692 5698 5705 5712 5719 5726 5733 5739 5746 5752 5758 5765 5772 5778 5785 5792 5798 5804 5810 5815 5819 5824 5827 5830 5833 5835 5837 5838 5839 5840 5841 5841
5641 5645 5650 5656 5663 5669 5676 5684 5691 5699 5706 5714 5721 5728 5735 5741 5748 5755 5762 5769 5777 5783 5790 5796 5802 5808 5812 5817 5821 5824 5827 5829 5831 5833 5834 5835 5836 5837
5622 5627 5633 5639 5646 5653 5661 5669 5676 5684 5692 5701 5708 5716 5724 5731 5739 5746 5753 5760 5767 5775 5781 5788 5794 5800 5805 5810 5814 5818 5821 5823 5826 5828 5829 5830 5831 5832
5603 5608 5614 5621 5629 5636 5645 5653 5661 5670 5678 5687 5695 5703 5712 5720 5728 5735 5743 5751 5759 5767 5773 5779 5786 5792 5798 5802 5807 5811 5815 5818 5820 5822 5824 5825 5826 5826
5585 5590 5596 5604 5612 5620 5629 5637 5646 5655 5664 5673 5683 5691 5700 5709 5718 5726 5733 5741 5749 5756 5763 5770 5777 5783 5789 5795 5799 5804 5808 5811 5814 5816 5818 5819 5820 5821
5569 5574 5580 5587 5596 5604 5613 5623 5632 5641 5651 5661 5671 5679 5687 5696 5706 5714 5722 5730 5739 5747 5754 5762 5768 5775 5781 5786 5792 5796 5801 5804 5807 5810 5812 5813 5814 5815
5557 5561 5567 5574 5582 5590 5600 5610 5619 5628 5636 5647 5657 5666 5675 5684 5694 5703 5712 5721 5729 5737 5745 5753 5760 5766 5772 5778 5783 5788 5793 5797 5800 5803 5805 5807 5808 5809
5546 5551 5556 5563 5570 5578 5587 5597 5607 5616 5625 5635 5644 5654 5664 5673 5683 5693 5702 5711 5720 5728 5736 5744 5751 5757 5764 5769 5775 5780 5785 5790 5793 5796 5798 5800 5802 5803
5538 5542 5547 5553 5560 5569 5577 5587 5596 5604 5614 5623 5633 5643 5653 5663 5672 5682 5691 5701 5710 5719 5727 5734 5741 5749 5755 5761 5767 5772 5777 5782 5786 5789 5791 5794 5795 5797
5531 5534 5539 5545 5552 5560 5569 5578 5587 5595 5604 5614 5624 5634 5643 5652 5662 5671 5680 5690 5699 5708 5715 5724 5732 5739 5746 5752 5758 5764 5769 5774 5778 5781 5784 5786 5788 5790
5524 5528 5532 5538 5545 5553 5562 5570 5579 5587 5596 5606 5615 5624 5633 5642 5651 5661 5670 5679 5688 5697 5705 5714 5722 5730 5737 5744 5750 5756 5761 5766 5770 5773 5776 5779 5781 5782
5520 5523 5528 5534 5540 5548 5556 5564 5573 5581 5589 5598 5606 5615 5624 5633 5643 5652 5661 5669 5679 5688 5696 5704 5713 5721 5728 5735 5741 5747 5752 5757 5762 5766 5769 5771 5773 5775
5518 5521 5526 5532 5538 5545 5552 5560 5568 5576 5584 5592 5600 5608 5616 5625 5634 5643 5652 5660 5669 5679 5687 5695 5703 5711 5719 5726 5733 5738 5744 5749 5754 5758 5761 5764 5766 5768
5518 5521 5526 5531 5536 5543 5549 5557 5564 5572 5579 5586 5594 5602 5610 5618 5626 5635 5644 5652 5660 5669 5677 5686 5694 5702 5711 5718 5725 5730 5736 5741 5746 5750 5753 5756 5758 5760
5519 5522 5527 5531 5536 5542 5548 5555 5561 5568 5575 5582 5589 5596 5603 5611 5619 5627 5635 5643 5652 5660 5669 5677 5686 5694 5702 5710 5716 5722 5728 5733 5737 5742 5745 5748 5751 5753
5522 5524 5528 5532 5537 5542 5547 5553 5559 5565 5572 5578 5584 5591 5598 5605 5612 5620 5628 5636 5644 5652 5660 5669 5678 5686 5694 5701 5707 5714 5719 5724 5729 5734 5737 5740 5743 5745
5525 5527 5530 5534 5538 5542 5547 5552 5557 5563 5569 5574 5580 5586 5593 5599 5606 5613 5621 5629 5636 5644 5653 5662 5670 5677 5685 5693 5699 5706 5712 5717 5721 5726 5729 5732 5735 5737
5528 5530 5532 5535 5539 5543 5547 5551 5556 5561 5566 5571 5577 5582 5588 5594 5601 5608 5615 5622 5630 5638 5646 5654 5662 5670 5678 5685 5692 5698 5704 5709 5714 5718 5722 5725 5727 5730
5530 5532 5534 5536 5539 5542 5546 5550 5554 5559 5563 5568 5573 5579 5584 5590 5596 5602 5609 5616 5624 5631 5639 5647 5655 5663 5671 5678 5685 5691 5696 5702 5706 5711 5715 5718 5720 5723
Wind_Speed
40 41 41 41 41 40 38 39 37 35 35 35 36 37 38 38 38 38 38 36 35 34 32 30 27 25 23 21 19 17 16 15 15 15 15 17 18 19
41 41 43 43 43 43 43 42 41 39 37 37 37 39 39 40 40 40 39 39 38 36 35 32 30 27 25 23 20 18 17 16 15 15 15 15 16 17
44 44 44 45 45 45 45 45 45 43 41 39 38 40 40 42 42 42 41 40 40 39 37 35 33 30 27 25 22 20 18 17 16 15 15 15 15 15
48 47 46 47 47 47 48 48 48 48 45 42 41 41 41 42 44 43 43 42 42 42 40 38 36 33 30 27 25 22 20 18 17 16 15 15 15 15
50 49 49 49 49 49 50 50 51 51 50 47 45 45 44 44 45 44 43 43 44 43 42 40 38 36 33 30 27 24 22 20 19 17 16 15 15 16
50 51 51 51 51 52 52 53 53 53 54 52 49 48 47 47 47 46 45 44 44 44 43 42 41 39 36 33 30 27 24 22 21 19 17 16 16 16
50 51 51 52 52 53 53 54 55 54 55 56 55 52 50 49 49 48 46 45 45 44 44 44 43 41 38 35 33 30 27 24 22 21 19 18 17 17
48 50 51 52 52 53 54 55 56 56 56 57 57 55 52 51 49 50 48 46 44 44 44 43 44 43 41 38 35 32 29 27 24 22 21 19 18 18
45 47 49 51 52 52 54 55 57 58 57 56 57 57 55 54 50 50 49 49 47 45 44 43 44 43 42 40 37 34 32 29 27 24 22 20 20 20
39 42 45 48 51 52 53 55 56 58 58 57 56 56 56 56 53 49 48 49 49 48 45 43 44 43 43 41 39 37 34 31 29 26 24 23 21 21
34 37 41 44 45 49 51 53 54 56 57 57 57 56 56 56 54 52 50 48 47 48 46 44 44 43 43 42 41 39 36 33 30 28 26 24 23 22
30 33 37 40 42 44 47 50 52 54 55 56 56 55 55 56 54 52 50 49 48 47 46 45 44 43 42 41 40 39 37 35 32 29 27 26 24 23
26 29 32 36 38 42 44 45 47 51 53 54 54 54 54 54 53 52 50 49 47 46 46 45 44 42 42 40 40 39 37 36 33 31 29 28 26 25
23 26 30 33 36 39 41 42 44 46 49 51 52 52 52 52 51 51 50 49 47 47 47 46 45 43 42 41 40 38 37 36 34 32 30 29 27 25
20 23 27 31 35 37 39 40 41 42 44 47 48 49 50 50 49 49 49 49 50 49 48 47 45 44 43 42 40 39 37 36 34 32 30 29 27 26
16 20 24 28 31 34 36 37 38 39 40 42 44 46 47 48 48 48 48 49 49 48 47 47 47 45 43 42 40 39 38 36 34 32 31 29 27 26
14 18 22 25 28 31 34 35 37 37 37 39 40 42 43 44 45 46 47 48 49 49 47 46 47 47 45 43 41 39 38 36 35 33 30 28 27 26
13 18 21 23 25 28 32 35 35 35 36 37 38 40 42 43 43 44 45 46 47 48 48 47 46 45 43 42 41 38 37 36 35 33 31 29 28 26
12 16 20 22 23 26 29 32 34 34 35 35 36 38 40 41 42 43 44 45 46 47 47 47 47 45 42 40 38 38 37 36 35 33 31 30 29 27
11 15 18 21 22 25 26 29 31 32 33 33 35 36 37 38 40 42 43 44 45 47 47 47 46 45 44 42 39 38 37 36 35 33 32 30 29 28
9 13 16 18 21 22 24 25 28 30 30 31 33 34 35 36 38 40 42 44 44 45 45 45 45 45 45 44 41 38 36 35 35 34 32 31 30 28
8 11 13 16 19 20 22 23 25 26 28 29 31 32 33 35 37 39 40 42 42 43 45 46 46 44 43 42 41 39 37 35 35 34 33 31 30 30
7 9 11 13 16 18 20 22 23 24 26 27 29 30 31 33 36 38 39 41 42 43 45 45 45 43 43 42 41 39 38 36 35 34 33 32 31 29
Wind_Direction
256 252 248 244 241 237 233 230 229 229 228 223 220 218 216 216 215 213 213 212 212 212 212 212 214 216 217 220 223 226 230 235 240 245 247 250 252 254
257 253 249 245 241 236 232 229 227 226 226 223 221 218 216 216 216 214 213 213 213 213 213 214 216 217 219 221 224 228 232 237 241 248 252 254 255 257
257 253 250 245 242 236 231 229 226 224 223 221 221 220 217 216 216 215 214 215 215 215 215 216 217 219 220 223 226 230 234 239 243 249 255 257 260 261
256 252 249 246 242 238 232 229 227 225 222 220 220 220 218 216 215 216 216 215 216 216 216 217 218 220 221 224 227 231 234 239 242 248 255 259 263 265
254 251 247 244 241 237 233 229 227 225 223 220 220 219 218 218 216 216 216 217 217 217 217 218 219 221 222 224 227 230 233 238 242 246 254 260 265 266
252 249 246 242 239 236 233 229 226 224 223 221 220 220 219 218 216 216 217 217 217 217 218 219 220 221 223 225 228 230 233 238 242 247 252 259 263 265
251 247 244 241 237 235 232 228 226 224 224 222 221 221 219 218 217 216 217 218 217 217 219 220 221 222 224 226 228 230 233 237 241 246 251 256 260 264
249 245 242 239 236 233 230 227 225 224 223 222 222 221 220 219 217 217 217 217 217 218 220 221 222 224 225 227 228 231 233 237 240 244 249 254 260 266
248 243 239 235 232 230 228 226 225 224 222 222 222 221 220 220 220 219 218 219 219 219 220 221 222 224 226 227 229 231 233 237 240 243 246 252 259 265
245 240 235 231 230 226 225 224 224 224 223 222 222 222 220 221 221 221 219 217 218 219 220 221 221 224 226 228 229 231 233 236 239 241 245 250 256 262
242 237 231 229 227 225 223 222 222 222 223 223 223 222 221 221 221 221 220 219 218 219 220 220 220 223 225 228 229 230 232 235 238 240 244 249 253 260
241 235 230 226 224 221 219 219 220 220 220 221 222 222 221 221 221 221 221 221 220 220 218 219 220 221 223 226 228 229 231 234 237 240 243 247 253 258
240 233 227 222 220 218 216 215 216 218 219 220 220 221 220 220 221 219 218 219 220 220 219 220 220 220 222 224 226 229 231 233 236 239 243 247 252 257
237 230 222 218 216 213 212 212 213 216 217 217 218 219 219 219 219 219 219 218 218 219 219 220 221 220 222 224 225 228 231 233 235 238 242 247 251 255
232 224 217 212 211 209 207 208 210 213 214 214 215 215 216 216 216 216 216 216 217 218 218 219 220 221 221 223 225 227 229 232 235 238 241 245 250 254
221 212 207 204 203 202 203 204 206 208 210 210 211 212 214 214 214 214 215 214 215 216 217 218 219 219 220 222 224 226 228 231 234 237 241 244 248 251
205 197 196 195 196 198 199 200 202 204 205 206 207 208 210 212 213 214 215 216 216 215 214 216 219 220 221 220 222 224 226 229 232 235 239 242 245 249
193 190 190 192 194 196 196 198 199 200 202 203 204 206 208 209 210 212 212 213 214 214 214 214 216 218 220 221 222 224 225 227 230 233 237 240 242 246
177 181 185 187 189 192 193 194 196 198 199 200 201 203 206 208 209 208 210 212 212 212 212 213 213 214 215 216 219 222 224 226 229 232 235 237 240 242
165 173 179 184 187 190 192 193 196 197 198 199 200 202 204 206 207 207 209 210 211 211 211 210 210 212 213 215 219 221 223 225 228 231 233 235 238 241
157 169 176 182 185 189 192 195 196 197 199 200 201 202 203 205 206 207 208 209 209 210 209 208 209 209 212 215 217 219 221 224 226 228 230 232 235 237
150 165 174 181 187 191 193 194 195 197 198 200 202 203 204 205 206 206 207 207 207 207 206 206 207 209 210 212 215 217 220 222 224 226 228 229 231 233
159 167 174 180 186 190 192 195 198 200 201 203 203 203 205 206 206 205 205 205 206 205 204 205 206 206 207 210 214 217 219 220 222 224 227 229 231 234